Weather History for Athens, OH

Change the Weather History Date:

Tuesday, August 6, 2013

  Actual Average (KPKB) Record (KPKB)
Temperature  
Mean Temperature 70 °F 74 °F  
Max Temperature 81 °F 85 °F 106 °F (1918)
Min Temperature 59 °F 64 °F 47 °F (1957)
Degree Days  
Heating Degree Days 0 0  
Month to date heating degree days 0  
Since 1 June heating degree days 20  
Since 1 July heating degree days 1  
Cooling Degree Days 5 9  
Month to date cooling degree days 54  
Year to date cooling degree days 621  
Since 1 June cooling degree days 537  
Growing Degree Days 20 (Base 50)    
Moisture  
Dew Point 59 °F    
Average Humidity 71    
Maximum Humidity 96    
Minimum Humidity 42    
Precipitation  
Precipitation 0.00 in 0.12 in 0.66 in (2011)
Month to date precipitation 0.73  
Year to date precipitation 25.91  
Sea Level Pressure  
Sea Level Pressure 30.00 in    
Wind  
Wind Speed 2 mph (SE)    
Max Wind Speed 7 mph    
Max Gust Speed -    
Visibility 10 miles    
Events Rain    
T = Trace of Precipitation, MM = Missing Value Source: NWS Daily Summary

Daily Weather History Graph

Daily Weather History Graph

Search for Another Location

Airport:

Trip Planner

Search our weather history database for the weather conditions in past years. The results will help you decide how hot, cold, wet, or windy it might be!

Date:

Astronomy

Aug. 06, 2013 Rise Set
Actual Time 6:33 AM EDT 8:35 PM EDT
Civil Twilight 6:04 AM EDT 9:04 PM EDT
Nautical Twilight 5:28 AM EDT 9:40 PM EDT
Astronomical Twilight 4:49 AM EDT 10:18 PM EDT
Moon 6:23 AM EDT (8/6) 8:09 PM EDT (8/6)
Length of Visible Light 14h 59m
Length of Day
14h 01m
Waning Crescent, 0% of the Moon is Illuminated
Aug 6
Waning Crescent
Aug 6
New
Aug 14
First Quarter
Aug 20
Full
Aug 28
Last Quarter

Hourly Weather History & Observations

Time (EDT) Temp. Heat Index Dew Point Humidity Pressure Visibility Wind Dir Wind Speed Gust Speed Precip Events Conditions
12:15 AM 63.9 °F - 61.0 °F 90% 30.03 in 10.0 mi Calm Calm - N/A Rain Light Rain
12:35 AM 64.4 °F - 61.0 °F 89% 30.03 in 10.0 mi Calm Calm - N/A Rain Light Rain
12:55 AM 63.9 °F - 61.2 °F 91% 30.03 in 10.0 mi SSE 5.8 mph - N/A Rain Rain
1:15 AM 63.0 °F - 60.8 °F 93% 30.02 in 10.0 mi Calm Calm - N/A Rain Light Rain
1:35 AM 63.3 °F - 59.7 °F 88% 30.03 in 10.0 mi SW 3.5 mph - N/A Rain Light Rain
1:55 AM 62.2 °F - 59.7 °F 91% 30.03 in 10.0 mi Calm Calm - N/A Rain Light Rain
2:15 AM 62.6 °F - 60.3 °F 92% 30.01 in 10.0 mi East 4.6 mph - N/A   Overcast
2:35 AM 62.4 °F - 59.4 °F 90% 30.00 in 10.0 mi East 3.5 mph - N/A   Overcast
2:55 AM 62.1 °F - 59.7 °F 92% 30.00 in 10.0 mi NE 5.8 mph - N/A   Overcast
3:15 AM 62.2 °F - 59.9 °F 92% 30.01 in 10.0 mi Calm Calm - N/A   Overcast
3:35 AM 62.6 °F - 59.7 °F 90% 30.01 in 10.0 mi Calm Calm - N/A   Overcast
3:55 AM 62.6 °F - 59.9 °F 91% 30.01 in 10.0 mi Calm Calm - N/A   Overcast
4:15 AM 62.2 °F - 60.3 °F 93% 30.01 in 10.0 mi Calm Calm - N/A   Overcast
4:35 AM 62.2 °F - 60.3 °F 93% 30.01 in 10.0 mi Calm Calm - N/A   Overcast
4:55 AM 62.2 °F - 60.3 °F 93% 30.01 in 7.0 mi Calm Calm - N/A   Overcast
5:15 AM 62.2 °F - 60.4 °F 94% 30.00 in 10.0 mi Calm Calm - N/A   Overcast
5:35 AM 61.7 °F - 59.9 °F 94% 30.00 in 7.0 mi Calm Calm - N/A   Overcast
5:55 AM 61.7 °F - 60.1 °F 94% 29.99 in 7.0 mi Calm Calm - N/A   Overcast
6:15 AM 61.3 °F - 59.9 °F 95% 29.99 in 7.0 mi Calm Calm - N/A   Scattered Clouds
6:35 AM 60.6 °F - 59.0 °F 94% 30.00 in 2.5 mi Calm Calm - N/A   Clear
6:55 AM 59.9 °F - 58.3 °F 94% 30.00 in 4.0 mi Calm Calm - N/A   Clear
7:15 AM 60.3 °F - 59.0 °F 96% 30.01 in 5.0 mi Calm Calm - N/A   Clear
7:35 AM 60.8 °F - 59.4 °F 95% 30.02 in 5.0 mi Calm Calm - N/A   Clear
7:55 AM 61.7 °F - 60.1 °F 94% 30.02 in 10.0 mi Calm Calm - N/A   Clear
8:15 AM 63.0 °F - 59.4 °F 88% 30.03 in 10.0 mi Calm Calm - N/A   Clear
8:35 AM 64.6 °F - 59.5 °F 84% 30.03 in 10.0 mi Calm Calm - N/A   Clear
8:55 AM 66.2 °F - 57.9 °F 75% 30.03 in 10.0 mi Calm Calm - N/A   Clear
9:15 AM 68.7 °F - 59.2 °F 72% 30.03 in 10.0 mi Calm Calm - N/A   Clear
9:35 AM 70.7 °F - 58.5 °F 65% 30.02 in 10.0 mi ESE 3.5 mph - N/A   Scattered Clouds
9:55 AM 71.6 °F - 55.9 °F 58% 30.03 in 10.0 mi ESE 3.5 mph - N/A   Scattered Clouds
10:15 AM 72.7 °F - 55.8 °F 55% 30.03 in 10.0 mi SE 4.6 mph - N/A   Clear
10:35 AM 73.4 °F - 54.5 °F 51% 30.03 in 10.0 mi ESE 4.6 mph - N/A   Clear
10:55 AM 74.3 °F - 53.8 °F 49% 30.02 in 10.0 mi East 3.5 mph - N/A   Clear
11:15 AM 75.2 °F - 57.0 °F 53% 30.02 in 10.0 mi SSE 4.6 mph - N/A   Clear
11:35 AM 75.6 °F - 54.7 °F 48% 30.02 in 10.0 mi ESE 5.8 mph - N/A   Clear
11:55 AM 75.6 °F - 56.5 °F 51% 30.02 in 10.0 mi SSE 3.5 mph - N/A   Clear
12:15 PM 76.1 °F - 55.8 °F 49% 30.02 in 10.0 mi South 4.6 mph - N/A   Clear
12:35 PM 76.6 °F - 55.0 °F 47% 30.01 in 10.0 mi South 5.8 mph - N/A   Clear
12:55 PM 77.2 °F - 54.7 °F 46% 30.00 in 10.0 mi South 4.6 mph - N/A   Clear
1:15 PM 77.5 °F - 56.3 °F 48% 30.01 in 10.0 mi SSE 5.8 mph - N/A   Clear
1:35 PM 78.1 °F - 57.2 °F 49% 30.00 in 10.0 mi SSW 4.6 mph - N/A   Clear
1:55 PM 78.6 °F - 55.0 °F 44% 30.00 in 10.0 mi Calm Calm - N/A   Clear
2:15 PM 79.2 °F - 55.8 °F 44% 30.00 in 10.0 mi SE 6.9 mph - N/A   Clear
2:35 PM 79.3 °F - 55.4 °F 44% 30.00 in 10.0 mi SE 4.6 mph - N/A   Scattered Clouds
2:55 PM 80.4 °F 80.5 °F 56.1 °F 43% 30.00 in 10.0 mi SSE 4.6 mph - N/A   Mostly Cloudy
3:15 PM 80.4 °F 80.6 °F 56.8 °F 44% 29.99 in 10.0 mi ENE 4.6 mph - N/A   Mostly Cloudy
3:35 PM 80.8 °F 80.7 °F 55.9 °F 42% 29.98 in 10.0 mi East 4.6 mph - N/A   Scattered Clouds
3:55 PM 81.0 °F 80.9 °F 56.7 °F 43% 29.98 in 10.0 mi East 4.6 mph - N/A   Mostly Cloudy
4:15 PM 79.9 °F - 57.4 °F 46% 29.99 in 10.0 mi Calm Calm - N/A   Overcast
4:35 PM 80.1 °F 80.5 °F 57.7 °F 46% 29.99 in 10.0 mi SSE 4.6 mph - N/A   Overcast
4:55 PM 80.1 °F 80.6 °F 58.3 °F 47% 29.99 in 10.0 mi Calm Calm - N/A   Overcast
5:15 PM 80.6 °F 81.0 °F 58.5 °F 47% 29.99 in 10.0 mi Calm Calm - N/A   Mostly Cloudy
5:35 PM 81.0 °F 81.1 °F 57.9 °F 45% 29.99 in 10.0 mi SSE 3.5 mph - N/A   Clear
5:55 PM 80.8 °F 81.0 °F 57.7 °F 45% 29.98 in 10.0 mi ESE 4.6 mph - N/A   Mostly Cloudy
6:15 PM 80.6 °F 80.9 °F 58.1 °F 46% 29.98 in 10.0 mi SSE 4.6 mph - N/A   Overcast
6:35 PM 80.6 °F 80.9 °F 57.9 °F 46% 29.98 in 10.0 mi Calm Calm - N/A   Scattered Clouds
6:55 PM 79.7 °F - 58.8 °F 49% 29.97 in 10.0 mi Calm Calm - N/A   Clear
7:15 PM 79.0 °F - 60.3 °F 53% 29.97 in 10.0 mi Calm Calm - N/A   Clear
7:35 PM 78.3 °F - 62.2 °F 58% 29.97 in 10.0 mi Calm Calm - N/A   Clear
7:55 PM 77.5 °F - 62.2 °F 59% 29.97 in 10.0 mi Calm Calm - N/A   Clear
8:15 PM 75.0 °F - 66.0 °F 73% 29.97 in 10.0 mi Calm Calm - N/A   Clear
8:35 PM 72.3 °F - 64.8 °F 77% 29.97 in 10.0 mi Calm Calm - N/A   Clear
8:55 PM 70.9 °F - 65.7 °F 83% 29.97 in 10.0 mi Calm Calm - N/A   Clear
9:15 PM 69.6 °F - 64.8 °F 84% 29.97 in 10.0 mi Calm Calm - N/A   Clear
9:35 PM 68.5 °F - 64.4 °F 87% 29.97 in 10.0 mi Calm Calm - N/A   Clear
9:55 PM 68.0 °F - 63.7 °F 86% 29.97 in 10.0 mi Calm Calm - N/A   Clear
10:15 PM 67.3 °F - 64.0 °F 89% 29.97 in 10.0 mi Calm Calm - N/A   Clear
10:35 PM 66.4 °F - 63.7 °F 91% 29.97 in 10.0 mi Calm Calm - N/A   Clear
10:55 PM 66.2 °F - 63.5 °F 91% 29.97 in 10.0 mi Calm Calm - N/A   Clear
11:15 PM 65.8 °F - 63.5 °F 92% 29.98 in 10.0 mi Calm Calm - N/A   Clear
11:35 PM 65.3 °F - 63.1 °F 93% 29.98 in 10.0 mi Calm Calm - N/A   Clear
11:55 PM 65.3 °F - 62.8 °F 92% 29.97 in 10.0 mi Calm Calm - N/A   Clear